Regional Weather Roundup
Issued by NWS

Home | Current Version | Previous Version | Graphics & Text | Print | Product List | Glossary On
Versions: 1 2 3 4 5 6 7 8 9 10 11 12 13 14 15 16 17 18 19 20 21 22 23 24 25 26 27 28 29 30 31 32 33 34 35 36 37 38 39 40 41 42 43 44 45 46 47 48 49 50
000
ASUS43 KFSD 061802
RWRSD

WEATHER ROUNDUP FOR SOUTH DAKOTA
NATIONAL WEATHER SERVICE SIOUX FALLS SD
1200 PM CST FRI MAR 06 2015

NOTE: "FAIR" INDICATES FEW OR NO CLOUDS BELOW 12,000 FEET WITH NO
SIGNIFICANT WEATHER AND/OR OBSTRUCTIONS TO VISIBILITY.


SDZ001>005-009-010-012>017-061900-
NORTHWEST AND NORTH CENTRAL SOUTH DAKOTA

CITY           SKY/WX    TMP DP  RH WIND       PRES   REMARKS
BUFFALO          N/A     50  17  27 W25G33    30.03S
FAITH            N/A     49  17  28 W10       30.10F
MOBRIDGE       PTSUNNY   38  16  40 VRB3      30.10F
$$

SDZ012>016-024>037-041>051-057-063-072>074-061900-
SOUTHWEST AND SOUTH CENTRAL SOUTH DAKOTA

CITY           SKY/WX    TMP DP  RH WIND       PRES   REMARKS
RAPID CTY ARPT MOSUNNY   54  18  24 NW15      30.13S
PIERRE         MOSUNNY   44  21  40 W6        30.13F
CUSTER         MOSUNNY   43  13  29 W20G36    30.15R
ELLSWORTH AFB  MOSUNNY   53  21  28 NW18G24   30.12F
PHILIP         PTSUNNY   54  18  24 W17       30.13F
PINE RIDGE     PTSUNNY   45  24  43 W16       30.19S
SPEARFISH      FAIR      45  18  33 W18G26    30.14F
WINNER         FAIR      49  21  33 W12       30.15F
$$

SDZ004>011-016>023-039-040-061900-
NORTHEAST SOUTH DAKOTA

CITY           SKY/WX    TMP DP  RH WIND       PRES   REMARKS
ABERDEEN       MOSUNNY   35  18  49 NW10      30.14F WCI  27
WATERTOWN      FAIR      30  18  60 NW8       30.11R WCI  22
SISSETON         N/A     33  18  53 NW10G20   30.11  WCI  25
$$

SDZ017-020-022-023-036>040-048>070-061900-
SOUTHEAST SOUTH DAKOTA

CITY           SKY/WX    TMP DP  RH WIND       PRES   REMARKS
SIOUX FALLS    PTSUNNY   43  22  43 W10       30.12R
HURON          MOSUNNY   34  19  54 N7        30.16R WCI  28
MITCHELL       SUNNY     43  20  39 NW8       30.16R
YANKTON        FAIR      52  19  28 W18       30.14S
$$

ABBREVIATIONS USED IN REMARKS
   TC - TEMPERATURE IN CELSIUS
  WCI - WIND CHILL INDEX
   HX - HEAT INDEX
  VSB - VISIBILITY




USA.gov is the U.S. government's official web portal to all federal, state and local government web resources and services.